Terminal Aerodrome Forecast
Issued by NWS

Home | Current Version | Previous Version | Text Only | Print | Product List | Glossary Off
Versions: 1 2 3 4 5 6 7 8 9 10 11 12 13 14 15 16 17

000
FTUS43 KMPX 070006 CCA
TAFRWF
TAF COR
KRWF 070006Z 0700/0724 34011G18KT 6SM FU SCT040
     FM070400 34007KT P6SM SKC
     FM071500 03005KT 6SM FU FEW040
     FM072100 VRB04KT 6SM FU FEW040=

USA.gov is the U.S. government's official web portal to all federal, state and local government web resources and services.